• In Latvia
  • List of Countries
  • For 7 days
  • Water Temperature
  • Satellite Maps
  • Weather Map
  • Weather Widgets
  • user-avatar
    Login

    Hourly Weather Tottori

    Today, 23 September, Sunday

    Time Temperature Precipitation Wind Pressure Humidity
    00:00 +19°C° 0 mm 1 mps 731 mmHg 94%
    01:00 +18°C° 0 mm 1 mps 731 mmHg 95%
    02:00 +18°C° 0 mm 1 mps 731 mmHg 95%
    03:00 +18°C° 0 mm 1 mps 731 mmHg 95%
    04:00 +18°C° 0 mm 1 mps 731 mmHg 96%
    05:00 +18°C° 0 mm 1 mps 731 mmHg 96%
    06:00 +18°C° 0 mm 1 mps 731 mmHg 96%
    07:00 +20°C° 0 mm 1 mps 732 mmHg 87%
    08:00 +22°C° 0 mm 1 mps 732 mmHg 78%
    09:00 +23°C° 0 mm 0 mps 732 mmHg 68%
    10:00 +26°C° 0 mm 1 mps 732 mmHg 63%
    11:00 +26°C° 0 mm 1 mps 732 mmHg 57%
    12:00 +27°C° 0 mm 1 mps 732 mmHg 52%
    13:00 +27°C° 0 mm 1 mps 731 mmHg 56%
    14:00 +26°C° 0 mm 1 mps 731 mmHg 59%
    15:00 +25°C° 0 mm 1 mps 731 mmHg 63%
    16:00 +24°C° 0 mm 1 mps 731 mmHg 67%
    17:00 +23°C° 0 mm 1 mps 731 mmHg 70%
    18:00 +22°C° 0 mm 1 mps 731 mmHg 74%
    19:00 +22°C° 0 mm 1 mps 731 mmHg 75%
    20:00 +21°C° 0 mm 1 mps 731 mmHg 75%
    21:00 +21°C° 0 mm 1 mps 731 mmHg 75%
    22:00 +21°C° 0 mm 1 mps 731 mmHg 74%
    23:00 +21°C° 0 mm 1 mps 731 mmHg 73%

    Tomorrow, 24 September, Monday

    Time Temperature Precipitation Wind Pressure Humidity
    00:00 +21°C° 0 mm 1 mps 730 mmHg 72%
    01:00 +21°C° 0 mm 1 mps 730 mmHg 71%
    02:00 +21°C° 0 mm 1 mps 730 mmHg 69%
    03:00 +21°C° 0 mm 1 mps 730 mmHg 67%
    04:00 +21°C° 0 mm 1 mps 730 mmHg 66%
    05:00 +21°C° 0 mm 1 mps 731 mmHg 65%
    06:00 +20°C° 0 mm 1 mps 731 mmHg 64%
    07:00 +22°C° 0 mm 1 mps 731 mmHg 63%
    08:00 +23°C° 0 mm 1 mps 731 mmHg 62%
    09:00 +24°C° 0 mm 1 mps 731 mmHg 61%
    10:00 +25°C° 0 mm 1 mps 731 mmHg 59%
    11:00 +25°C° 0 mm 1 mps 732 mmHg 58%
    12:00 +26°C° 0 mm 2 mps 732 mmHg 56%
    13:00 +25°C° 0 mm 2 mps 731 mmHg 62%
    14:00 +24°C° 0 mm 1 mps 731 mmHg 68%
    15:00 +24°C° 0 mm 1 mps 731 mmHg 74%
    16:00 +23°C° 0.1 mm 1 mps 731 mmHg 77%
    17:00 +22°C° 0.1 mm 1 mps 731 mmHg 80%
    18:00 +21°C° 0.1 mm 1 mps 731 mmHg 83%
    19:00 +21°C° 0 mm 1 mps 731 mmHg 84%
    20:00 +20°C° 0 mm 1 mps 731 mmHg 86%
    21:00 +20°C° 0 mm 1 mps 731 mmHg 88%
    22:00 +20°C° 0 mm 1 mps 731 mmHg 89%
    23:00 +20°C° 0 mm 1 mps 731 mmHg 89%

    Day after tomorrow, 25 September, Tuesday

    Time Temperature Precipitation Wind Pressure Humidity
    00:00 +20°C° 0 mm 1 mps 731 mmHg 90%
    01:00 +19°C° 0 mm 1 mps 731 mmHg 90%
    02:00 +19°C° 0 mm 1 mps 731 mmHg 90%
    03:00 +18°C° 0 mm 2 mps 730 mmHg 90%
    04:00 +18°C° 0 mm 2 mps 730 mmHg 90%
    05:00 +18°C° 0 mm 2 mps 730 mmHg 90%
    06:00 +17°C° 0 mm 2 mps 730 mmHg 91%
    07:00 +18°C° 0 mm 2 mps 731 mmHg 86%
    08:00 +20°C° 0 mm 2 mps 731 mmHg 81%
    09:00 +21°C° 0 mm 2 mps 731 mmHg 76%
    10:00 +23°C° 0 mm 2 mps 731 mmHg 73%
    11:00 +23°C° 0 mm 2 mps 731 mmHg 70%
    12:00 +24°C° 0 mm 2 mps 731 mmHg 67%
    13:00 +24°C° 0 mm 3 mps 730 mmHg 68%
    14:00 +22°C° 0 mm 3 mps 730 mmHg 69%
    15:00 +22°C° 0 mm 3 mps 730 mmHg 70%
    16:00 +21°C° 0 mm 3 mps 730 mmHg 75%
    17:00 +20°C° 0 mm 3 mps 730 mmHg 79%
    18:00 +18°C° 0 mm 3 mps 730 mmHg 83%
    19:00 +18°C° 0.1 mm 3 mps 730 mmHg 85%
    20:00 +18°C° 0.1 mm 3 mps 731 mmHg 87%
    21:00 +17°C° 0.1 mm 4 mps 731 mmHg 88%
    22:00 +17°C° 0 mm 4 mps 731 mmHg 89%
    23:00 +17°C° 0 mm 3 mps 731 mmHg 90%

    26 September, Wednesday

    Time Temperature Precipitation Wind Pressure Humidity
    00:00 +16°C° 0 mm 3 mps 731 mmHg 91%
    01:00 +16°C° 0 mm 3 mps 730 mmHg 92%
    02:00 +16°C° 0 mm 3 mps 730 mmHg 92%
    03:00 +16°C° 0 mm 3 mps 730 mmHg 93%
    04:00 +16°C° 0 mm 3 mps 730 mmHg 92%
    05:00 +15°C° 0 mm 4 mps 730 mmHg 92%
    06:00 +15°C° 0 mm 4 mps 730 mmHg 91%
    07:00 +17°C° 0 mm 4 mps 731 mmHg 86%
    08:00 +18°C° 0 mm 4 mps 731 mmHg 81%
    09:00 +20°C° 0 mm 4 mps 731 mmHg 75%
    10:00 +21°C° 0 mm 5 mps 731 mmHg 72%
    11:00 +22°C° 0 mm 5 mps 731 mmHg 69%
    12:00 +22°C° 0 mm 5 mps 731 mmHg 66%
    13:00 +22°C° 0 mm 5 mps 730 mmHg 67%
    14:00 +22°C° 0 mm 5 mps 730 mmHg 69%
    15:00 +21°C° 0 mm 5 mps 730 mmHg 71%
    16:00 +20°C° 0.1 mm 5 mps 730 mmHg 75%
    17:00 +19°C° 0.1 mm 5 mps 730 mmHg 79%
    18:00 +18°C° 0.1 mm 4 mps 730 mmHg 83%
    19:00 +18°C° 0.1 mm 4 mps 730 mmHg 84%
    20:00 +18°C° 0.1 mm 4 mps 730 mmHg 85%
    21:00 +18°C° 0.1 mm 4 mps 730 mmHg 86%
    22:00 +18°C° 0.1 mm 4 mps 730 mmHg 87%
    23:00 +18°C° 0.1 mm 4 mps 730 mmHg 88%

    27 September, Thursday

    Time Temperature Precipitation Wind Pressure Humidity
    00:00 +18°C° 0.1 mm 4 mps 730 mmHg 88%
    01:00 +18°C° 0.1 mm 4 mps 730 mmHg 89%
    02:00 +18°C° 0.1 mm 4 mps 730 mmHg 89%
    03:00 +18°C° 0.1 mm 4 mps 730 mmHg 89%
    04:00 +18°C° 0.1 mm 4 mps 730 mmHg 89%
    05:00 +18°C° 0.1 mm 4 mps 730 mmHg 90%
    06:00 +18°C° 0.1 mm 4 mps 730 mmHg 90%
    07:00 +19°C° 0.1 mm 4 mps 730 mmHg 86%
    08:00 +20°C° 0.1 mm 4 mps 730 mmHg 83%
    09:00 +21°C° 0.1 mm 5 mps 731 mmHg 79%
    10:00 +21°C° 0.1 mm 5 mps 730 mmHg 77%
    11:00 +22°C° 0.1 mm 5 mps 730 mmHg 75%
    12:00 +22°C° 0.1 mm 5 mps 730 mmHg 73%
    13:00 +22°C° 0.1 mm 4 mps 730 mmHg 72%
    14:00 +22°C° 0.1 mm 4 mps 730 mmHg 72%
    15:00 +22°C° 0.1 mm 4 mps 729 mmHg 72%
    16:00 +21°C° 0.1 mm 4 mps 730 mmHg 77%
    17:00 +20°C° 0.1 mm 4 mps 730 mmHg 81%
    18:00 +19°C° 0.1 mm 3 mps 730 mmHg 86%
    19:00 +18°C° 0 mm 3 mps 731 mmHg 88%
    20:00 +17°C° 0 mm 3 mps 731 mmHg 90%
    21:00 +17°C° 0 mm 3 mps 731 mmHg 92%
    22:00 +17°C° 0 mm 3 mps 731 mmHg 93%
    23:00 +16°C° 0 mm 3 mps 731 mmHg 93%

    28 September, Friday

    Time Temperature Precipitation Wind Pressure Humidity
    00:00 +16°C° 0 mm 2 mps 731 mmHg 94%
    01:00 +16°C° 0 mm 2 mps 731 mmHg 95%
    02:00 +16°C° 0 mm 2 mps 731 mmHg 95%
    03:00 +16°C° 0 mm 2 mps 731 mmHg 95%
    04:00 +16°C° 0 mm 2 mps 731 mmHg 95%
    05:00 +16°C° 0 mm 2 mps 731 mmHg 95%
    06:00 +16°C° 0 mm 2 mps 732 mmHg 96%
    07:00 +18°C° 0 mm 2 mps 732 mmHg 88%
    08:00 +19°C° 0 mm 3 mps 732 mmHg 81%
    09:00 +21°C° 0 mm 3 mps 732 mmHg 74%
    10:00 +24°C° 0 mm 3 mps 732 mmHg 69%
    11:00 +25°C° 0 mm 3 mps 732 mmHg 64%
    12:00 +26°C° 0 mm 3 mps 732 mmHg 59%
    13:00 +26°C° 0 mm 3 mps 731 mmHg 60%
    14:00 +26°C° 0 mm 3 mps 731 mmHg 61%
    15:00 +26°C° 0 mm 3 mps 731 mmHg 61%
    16:00 +25°C° 0 mm 3 mps 731 mmHg 68%
    17:00 +22°C° 0 mm 3 mps 731 mmHg 75%
    18:00 +21°C° 0 mm 3 mps 731 mmHg 82%
    19:00 +20°C° 0 mm 3 mps 731 mmHg 85%
    20:00 +20°C° 0 mm 2 mps 731 mmHg 87%
    21:00 +19°C° 0 mm 2 mps 731 mmHg 90%
    22:00 +19°C° 0 mm 2 mps 731 mmHg 90%
    23:00 +19°C° 0 mm 2 mps 731 mmHg 90%
    Show more